| time (UTC) | temp F | wind direction | speed knots | gust knots | rain 1hr in | rain 24hr in | rain mn in | humidity % | barometer mb |
| 20260831220039 | 78 | 84 | 0.9 | 6.1 | 0.00 | 0.06 | 0.00 | 33 | 1021.6 |
| 20260831214544 | 78 | 109 | 0.0 | 2.6 | 0.00 | 0.06 | 0.00 | 33 | 1021.6 |
| 20260831213041 | 78 | 111 | 0.0 | 0.9 | 0.00 | 0.06 | 0.00 | 33 | 1021.7 |
| 20260831211538 | 78 | 111 | 0.0 | 0.9 | 0.00 | 0.06 | 0.00 | 31 | 1022.1 |
| 20260831210037 | 78 | 117 | 0.0 | 2.6 | 0.00 | 0.06 | 0.00 | 32 | 1022.2 |
| 20260831204538 | 78 | 142 | 0.9 | 2.6 | 0.00 | 0.06 | 0.00 | 31 | 1022.3 |
| 20260831203034 | 77 | 126 | 0.0 | 3.5 | 0.00 | 0.06 | 0.00 | 32 | 1022.4 |
| 20260831201534 | 78 | 115 | 0.0 | 2.6 | 0.00 | 0.06 | 0.00 | 33 | 1022.7 |
| 20260831200031 | 74 | 114 | 0.0 | 1.7 | 0.00 | 0.06 | 0.00 | 33 | 1023.0 |
| 20260831194530 | 74 | 115 | 0.0 | 0.9 | 0.00 | 0.06 | 0.00 | 35 | 1023.0 |
| 20260831193035 | 74 | 109 | 0.0 | 1.7 | 0.00 | 0.06 | 0.00 | 34 | 1023.1 |
| 20260831191530 | 74 | 111 | 0.0 | 1.7 | 0.00 | 0.06 | 0.00 | 34 | 1023.1 |
| 20260831190029 | 74 | 106 | 0.0 | 3.5 | 0.00 | 0.06 | 0.00 | 32 | 1023.4 |
| 20260831184529 | 74 | 95 | 0.9 | 5.2 | 0.00 | 0.06 | 0.00 | 33 | 1023.6 |
| 20260831183029 | 75 | 115 | 0.0 | 1.7 | 0.00 | 0.06 | 0.00 | 33 | 1023.6 |
| 20260831181524 | 74 | 116 | 0.0 | 1.7 | 0.00 | 0.06 | 0.00 | 36 | 1023.7 |
| 20260831180023 | 74 | 109 | 0.9 | 3.5 | 0.00 | 0.06 | 0.00 | 39 | 1023.8 |
| 20260831174522 | 74 | 116 | 1.7 | 2.6 | 0.00 | 0.06 | 0.00 | 39 | 1023.7 |
| 20260831173021 | 73 | 112 | 0.0 | 2.6 | 0.00 | 0.06 | 0.00 | 40 | 1023.8 |
| 20260831171520 | 72 | 128 | 0.0 | 1.7 | 0.00 | 0.06 | 0.00 | 41 | 1024.1 |
| 20260831170034 | 73 | 151 | 0.0 | 2.6 | 0.00 | 0.06 | 0.00 | 42 | 1024.2 |
| 20260831164523 | 73 | 137 | 0.9 | 3.5 | 0.00 | 0.06 | 0.00 | 40 | 1024.2 |
| 20260831163016 | 72 | 118 | 0.0 | 1.7 | 0.00 | 0.06 | 0.00 | 42 | 1024.0 |
| 20260831161511 | 71 | 165 | 0.0 | 0.9 | 0.00 | 0.06 | 0.00 | 47 | 1023.9 |
| 20260831160008 | 69 | 166 | 0.0 | 0.9 | 0.00 | 0.06 | 0.00 | 44 | 1024.0 |
| 20260831154516 | 68 | 275 | 0.0 | 1.7 | 0.00 | 0.06 | 0.00 | 47 | 1023.8 |
| 20260831153100 | 66 | 125 | 0.0 | 0.0 | 0.00 | 0.06 | 0.00 | 61 | 1023.8 |
| 20260831151609 | 64 | 125 | 0.0 | 0.0 | 0.00 | 0.06 | 0.00 | 65 | 1023.7 |
| 20260831150055 | 63 | 125 | 0.0 | 0.0 | 0.00 | 0.06 | 0.00 | 66 | 1023.7 |
| 20260831144554 | 63 | 125 | 0.0 | 0.9 | 0.00 | 0.06 | 0.00 | 67 | 1023.8 |
| 20260831143050 | 62 | 313 | 0.0 | 0.9 | 0.00 | 0.06 | 0.00 | 66 | 1023.8 |
| 20260831141548 | 60 | 313 | 0.0 | 0.0 | 0.00 | 0.06 | 0.00 | 66 | 1023.9 |
| 20260831140054 | 59 | 313 | 0.0 | 0.0 | 0.00 | 0.06 | 0.00 | 69 | 1023.9 |
| 20260831134547 | 58 | 313 | 0.0 | 0.0 | 0.00 | 0.06 | 0.00 | 69 | 1023.7 |
| 20260831133048 | 58 | 313 | 0.0 | 1.7 | 0.00 | 0.06 | 0.00 | 68 | 1023.6 |
| 20260831131545 | 58 | 110 | 0.9 | 2.6 | 0.00 | 0.06 | 0.00 | 67 | 1023.5 |
| 20260831130049 | 58 | 122 | 0.0 | 2.6 | 0.00 | 0.06 | 0.00 | 65 | 1023.3 |
| 20260831124546 | 58 | 128 | 0.9 | 2.6 | 0.00 | 0.06 | 0.00 | 63 | 1023.1 |
| 20260831123044 | 59 | 159 | 0.0 | 2.6 | 0.00 | 0.06 | 0.00 | 62 | 1022.7 |
| 20260831121545 | 58 | 265 | 0.0 | 0.0 | 0.00 | 0.06 | 0.00 | 61 | 1022.4 |
| 20260831120043 | 58 | 265 | 0.0 | 0.0 | 0.00 | 0.06 | 0.00 | 60 | 1022.5 |
| 20260831114542 | 57 | 120 | 0.0 | 0.0 | 0.00 | 0.06 | 0.00 | 63 | 1022.6 |
| 20260831113040 | 58 | 120 | 0.0 | 0.0 | 0.00 | 0.06 | 0.00 | 62 | 1022.5 |
| 20260831111542 | 58 | 119 | 0.0 | 0.0 | 0.00 | 0.06 | 0.00 | 64 | 1022.2 |
| 20260831110039 | 58 | 120 | 0.0 | 0.9 | 0.00 | 0.06 | 0.00 | 65 | 1022.3 |
| 20260831104555 | 58 | 120 | 0.0 | 0.0 | 0.00 | 0.06 | 0.00 | 64 | 1022.1 |
| 20260831103037 | 58 | 119 | 0.0 | 0.9 | 0.00 | 0.06 | 0.00 | 64 | 1022.1 |
| 20260831101537 | 59 | 120 | 0.0 | 1.7 | 0.00 | 0.06 | 0.00 | 62 | 1022.1 |
| 20260831100045 | 59 | 330 | 0.0 | 0.9 | 0.00 | 0.06 | 0.00 | 61 | 1022.0 |
| 20260831094539 | 60 | 329 | 0.0 | 0.0 | 0.00 | 0.06 | 0.00 | 62 | 1022.0 |
| 20260831093036 | 59 | 331 | 0.0 | 0.0 | 0.00 | 0.06 | 0.00 | 62 | 1022.0 |
| 20260831091536 | 60 | 331 | 0.0 | 1.7 | 0.00 | 0.06 | 0.00 | 61 | 1021.7 |
| 20260831090034 | 61 | 279 | 0.0 | 0.0 | 0.00 | 0.06 | 0.00 | 59 | 1021.4 |
| 20260831084539 | 60 | 346 | 0.0 | 4.3 | 0.00 | 0.06 | 0.00 | 61 | 1021.5 |
| 20260831083040 | 60 | 19 | 0.0 | 0.9 | 0.00 | 0.06 | 0.00 | 63 | 1021.5 |
| 20260831081529 | 60 | 341 | 0.0 | 2.6 | 0.00 | 0.06 | 0.00 | 64 | 1021.9 |
| 20260831080046 | 60 | 343 | 0.0 | 2.6 | 0.00 | 0.06 | 0.00 | 63 | 1021.8 |
| 20260831074529 | 59 | 279 | 0.0 | 2.6 | 0.00 | 0.06 | 0.00 | 64 | 1021.9 |
| 20260831073033 | 60 | 290 | 0.0 | 0.9 | 0.00 | 0.06 | 0.00 | 62 | 1022.4 |
| 20260831071526 | 59 | 290 | 0.0 | 0.9 | 0.00 | 0.06 | 0.00 | 64 | 1022.4 |
| 20260831070028 | 59 | 290 | 0.0 | 0.0 | 0.00 | 0.06 | 0.00 | 68 | 1022.3 |
| 20260831064525 | 59 | 291 | 0.0 | 2.6 | 0.00 | 0.06 | 0.00 | 69 | 1022.6 |
| 20260831063025 | 60 | 117 | 0.0 | 0.0 | 0.00 | 0.06 | 0.00 | 68 | 1022.7 |
| 20260831061520 | 60 | 260 | 0.0 | 0.9 | 0.00 | 0.06 | 0.00 | 65 | 1022.3 |
| 20260831060017 | 59 | 279 | 0.9 | 2.6 | 0.00 | 0.06 | 0.00 | 69 | 1022.7 |
| 20260831054517 | 60 | 23 | 0.0 | 0.9 | 0.01 | 0.06 | 0.06 | 71 | 1023.2 |
| 20260831053016 | 61 | 113 | 1.7 | 8.7 | 0.01 | 0.06 | 0.06 | 63 | 1022.7 |
| 20260831051515 | 60 | 116 | 1.7 | 6.1 | 0.01 | 0.06 | 0.06 | 68 | 1023.6 |
| 20260831050014 | 63 | 147 | 2.6 | 7.0 | 0.02 | 0.06 | 0.06 | 62 | 1023.4 |
| 20260831044519 | 64 | 271 | 5.2 | 17.4 | 0.05 | 0.05 | 0.05 | 54 | 1022.8 |
| 20260831043013 | 62 | 302 | 7.8 | 20.0 | 0.05 | 0.05 | 0.05 | 60 | 1022.3 |
| 20260831041512 | 61 | 30 | 7.8 | 18.2 | 0.05 | 0.05 | 0.05 | 61 | 1022.7 |
| 20260831040009 | 61 | 306 | 8.7 | 20.0 | 0.03 | 0.03 | 0.03 | 64 | 1023.1 |
| 20260831034609 | 67 | 304 | 9.6 | 25.2 | 0.00 | 0.00 | 0.00 | 46 | 1022.1 |
| 20260831033008 | 68 | 325 | 7.8 | 16.5 | 0.00 | 0.00 | 0.00 | 43 | 1021.3 |
| 20260831031515 | 67 | 281 | 11.3 | 19.1 | 0.00 | 0.00 | 0.00 | 45 | 1021.0 |
| 20260831030006 | 68 | 281 | 9.6 | 20.9 | 0.00 | 0.00 | 0.00 | 44 | 1020.6 |
| 20260831024509 | 68 | 275 | 3.5 | 17.4 | 0.00 | 0.00 | 0.00 | 45 | 1020.6 |
| 20260831023004 | 68 | 271 | 5.2 | 16.5 | 0.00 | 0.00 | 0.00 | 45 | 1020.6 |
| 20260831021504 | 64 | 327 | 0.9 | 5.2 | 0.00 | 0.00 | 0.00 | 53 | 1020.8 |
| 20260831020004 | 63 | 360 | 0.9 | 4.3 | 0.00 | 0.00 | 0.00 | 62 | 1020.8 |
| 20260831014501 | 63 | 32 | 0.9 | 2.6 | 0.00 | 0.00 | 0.00 | 62 | 1020.5 |
| 20260831013001 | 63 | 28 | 0.9 | 6.1 | 0.00 | 0.00 | 0.00 | 62 | 1019.9 |
| 20260831011614 | 64 | 313 | 2.6 | 5.2 | 0.00 | 0.00 | 0.00 | 62 | 1019.6 |
| 20260831010100 | 65 | 12 | 1.7 | 4.3 | 0.00 | 0.00 | 0.00 | 59 | 1019.5 |
| 20260831004600 | 64 | 296 | 1.7 | 7.8 | 0.00 | 0.00 | 0.00 | 61 | 1019.7 |
| 20260831003059 | 64 | 345 | 1.7 | 8.7 | 0.00 | 0.00 | 0.00 | 63 | 1019.9 |
| 20260831001606 | 65 | 27 | 0.9 | 6.1 | 0.00 | 0.00 | 0.00 | 63 | 1019.9 |
| 20260830234558 | 65 | 58 | 0.0 | 4.3 | 0.00 | 0.00 | 0.00 | 63 | 1019.9 |
| 20260830233105 | 66 | 96 | 0.9 | 4.3 | 0.00 | 0.00 | 0.00 | 61 | 1020.3 |
| 20260830231607 | 66 | 30 | 0.9 | 4.3 | 0.00 | 0.00 | 0.00 | 62 | 1020.2 |
| 20260830230057 | 67 | 46 | 1.7 | 4.3 | 0.00 | 0.00 | 0.00 | 58 | 1020.1 |
| 20260830224616 | 69 | 355 | 1.7 | 5.2 | 0.00 | 0.02 | 0.00 | 52 | 1019.8 |
| 20260830223057 | 73 | 345 | 0.0 | 0.9 | 0.00 | 0.02 | 0.00 | 37 | 1019.3 |
| 20260830221603 | 73 | 154 | 0.9 | 5.2 | 0.00 | 0.02 | 0.00 | 37 | 1019.0 |